This is the latest recevied weather packets stored in our database for station/object KB2EAR-13. If no packets are shown the sender has not sent any weather packets the latest 10 day(s).
| Time | Temp. | Humidity | Pressure | Rain* | Wind** | Luminosity | Snow |
|---|---|---|---|---|---|---|---|
| 1787846512 | 26.11° C | 87% | 1016.6 hPa | 0.25 mm | - | - | - |
| 1787846436 | 26.11° C | 88% | 1016.7 hPa | 0 mm | - | - | - |
| 1787846117 | 26.11° C | 88% | 1016.7 hPa | 0 mm | - | - | - |
| 1787845817 | 26.11° C | 89% | 1016.7 hPa | 0 mm | - | - | - |
| 1787845517 | 26.11° C | 90% | 1016.9 hPa | 0 mm | - | - | - |
| 1787845217 | 25.56° C | 91% | 1016.9 hPa | 0 mm | - | - | - |
| 1787844917 | 25.56° C | 92% | 1017.1 hPa | 0 mm | - | - | - |
| 1787844617 | 25.56° C | 93% | 1017 hPa | 0 mm | - | - | - |
| 1787844317 | 25° C | 94% | 1017 hPa | 0 mm | - | - | - |
| 1787844017 | 25° C | 94% | 1017.1 hPa | 0 mm | - | - | - |
| 1787843717 | 24.44° C | 94% | 1017.2 hPa | 0 mm | - | - | - |
| 1787843417 | 24.44° C | 94% | 1017.3 hPa | 0.25 mm | - | - | - |
| 1787843117 | 23.89° C | 95% | 1017.3 hPa | 0.25 mm | - | - | - |
| 1787842817 | 23.89° C | 94% | 1017.4 hPa | 0.25 mm | - | - | - |
| 1787842517 | 23.89° C | 94% | 1017.4 hPa | 0.25 mm | - | - | - |
| 1787842217 | 23.89° C | 94% | 1017.6 hPa | 0.25 mm | - | - | - |
| 1787841917 | 23.89° C | 94% | 1017.4 hPa | 0.25 mm | - | - | - |
| 1787841617 | 23.89° C | 94% | 1017.4 hPa | 0.25 mm | - | - | - |
| 1787841317 | 23.89° C | 94% | 1017.5 hPa | 0.25 mm | - | - | - |
| 1787841017 | 23.33° C | 94% | 1017.4 hPa | 0.76 mm | - | - | - |
| 1787840717 | 23.33° C | 94% | 1017.6 hPa | 1.78 mm | - | - | - |
| 1787840417 | 23.33° C | 95% | 1017.8 hPa | 1.78 mm | - | - | - |
| 1787840117 | 23.33° C | 94% | 1017.8 hPa | 1.78 mm | - | - | - |
| 1787839817 | 23.33° C | 95% | 1017.9 hPa | 1.52 mm | - | - | - |
| 1787839516 | 23.33° C | 95% | 1018 hPa | 1.52 mm | - | - | - |
* Rain latest hour (hover to see other rain measurements)
** Current wind speed in m/s (hover to see current wind gust speed)